This is the latest recevied weather packets stored in our database for station/object KI6SYE. If no packets are shown the sender has not sent any weather packets the latest 10 day(s).
| Time | Temp. | Humidity | Pressure | Rain* | Wind** | Luminosity | Snow |
|---|---|---|---|---|---|---|---|
| 1787876639 | 25.56° C | 89% | 1009.2 hPa | 0 mm | - | 109 W/m² | - |
| 1787876339 | 25.56° C | 88% | 1009.1 hPa | 0 mm | - | 132 W/m² | - |
| 1787876037 | 25.56° C | 88% | 1009 hPa | 0 mm | - | 237 W/m² | - |
| 1787875733 | 25.56° C | 89% | 1009.1 hPa | 0 mm | - | 230 W/m² | - |
| 1787875431 | 25.56° C | 89% | 1008.9 hPa | 0 mm | - | 118 W/m² | - |
| 1787875129 | 25.56° C | 88% | 1009.1 hPa | 0 mm | - | 144 W/m² | - |
| 1787874825 | 25.56° C | 89% | 1008.9 hPa | 0 mm | - | 175 W/m² | - |
| 1787874523 | 25.56° C | 89% | 1009 hPa | 0 mm | - | 182 W/m² | - |
| 1787874218 | 26.11° C | 88% | 1009.1 hPa | 0 mm | - | 190 W/m² | - |
| 1787873913 | 26.11° C | 86% | 1009.1 hPa | 0 mm | - | 280 W/m² | - |
| 1787873613 | 26.67° C | 86% | 1009.1 hPa | 0 mm | - | 232 W/m² | - |
| 1787873308 | 26.67° C | 85% | 1009.6 hPa | 0 mm | - | 265 W/m² | - |
| 1787873007 | 26.67° C | 85% | 1009.4 hPa | 0 mm | - | 451 W/m² | - |
| 1787872702 | 27.22° C | 84% | 1009.4 hPa | 0 mm | - | 430 W/m² | - |
| 1787872398 | 26.67° C | 83% | 1009.6 hPa | 0 mm | - | 472 W/m² | - |
| 1787872093 | 26.67° C | 86% | 1009.6 hPa | 0 mm | - | 566 W/m² | - |
| 1787871793 | 26.11° C | 86% | 1009.5 hPa | 0 mm | - | 343 W/m² | - |
| 1787871488 | 26.11° C | 85% | 1009.5 hPa | 0 mm | - | 276 W/m² | - |
| 1787871183 | 25.56° C | 87% | 1009.7 hPa | 0 mm | - | 337 W/m² | - |
| 1787870883 | 25.56° C | 88% | 1009.5 hPa | 0 mm | - | 222 W/m² | - |
| 1787870578 | 25.56° C | 88% | 1009.9 hPa | 0 mm | - | 197 W/m² | - |
| 1787870273 | 25.56° C | 88% | 1010 hPa | 0 mm | - | 167 W/m² | - |
| 1787869968 | 26.11° C | 87% | 1010.2 hPa | 0 mm | - | 159 W/m² | - |
| 1787869667 | 25.56° C | 88% | 1010.2 hPa | 0 mm | - | 156 W/m² | - |
| 1787869361 | 26.11° C | 86% | 1010.2 hPa | 0 mm | - | 164 W/m² | - |
* Rain latest hour (hover to see other rain measurements)
** Current wind speed in m/s (hover to see current wind gust speed)